Location: Banios
(43.0451°N, 0.2335°E)
Time: 11:56:58
(UTC+00:00)

Tiros 1 - All Passes

Search period start: 13 May 2021 00:00
Search period end: 23 May 2021 00:00
Orbit: 630 x 664 km, 48.4° (Epoch: 12 May)

Date Brightness Start Highest point End Pass type
(mag) Time Alt. Az. Time Alt. Az. Time Alt. Az.
13 May - 00:59:12 10° WSW 01:04:01 85° SSE 01:08:48 10° ENE visible
13 May - 02:41:55 10° W 02:46:32 46° N 02:51:07 10° ENE visible
13 May - 04:24:39 10° WNW 04:29:19 51° NNE 04:33:55 10° E daylight
13 May - 06:06:58 10° WNW 06:11:40 63° SSW 06:16:17 10° SE daylight
13 May - 07:50:47 10° WSW 07:53:08 14° SW 07:55:29 10° SSW daylight
13 May - 23:43:23 10° SW 23:47:55 43° SE 23:52:27 10° ENE visible
14 May - 01:25:18 10° W 01:30:04 62° NNW 01:34:48 10° ENE visible
14 May - 03:08:13 10° WNW 03:12:48 43° N 03:17:20 10° ENE visible
14 May - 04:50:42 10° WNW 04:55:28 73° NNE 05:00:10 10° ESE daylight
14 May - 06:33:14 10° WNW 06:37:25 32° SW 06:41:33 10° SSE daylight
14 May - 22:28:37 10° S 22:32:04 20° SE 22:35:32 10° E visible
15 May - 00:08:58 10° WSW 00:13:46 81° SSE 00:18:34 10° ENE visible
15 May - 01:51:37 10° W 01:56:15 47° N 02:00:52 10° ENE visible
15 May - 03:34:24 10° WNW 03:39:03 50° NNE 03:43:39 10° E visible
15 May - 05:16:42 10° WNW 05:21:26 67° SSW 05:26:05 10° SE daylight
15 May - 07:00:17 10° W 07:02:58 15° SW 07:05:39 10° SSW daylight
15 May - 22:53:13 10° SSW 22:57:42 40° SE 23:02:11 10° ENE visible
16 May - 00:35:02 10° WSW 00:39:48 64° NNW 00:44:34 10° ENE visible
16 May - 02:17:56 10° WNW 02:22:32 43° N 02:27:04 10° ENE visible
16 May - 04:00:26 10° WNW 04:05:13 70° NNE 04:09:55 10° ESE visible
16 May - 05:42:55 10° WNW 05:47:13 34° SW 05:51:27 10° SSE daylight
16 May - 21:38:37 10° S 21:41:52 18° SE 21:45:09 10° E night (unlit)
16 May - 23:18:44 10° SW 23:23:32 76° SSE 23:28:20 10° ENE visible
17 May - 01:01:20 10° W 01:06:00 48° N 01:10:38 10° ENE visible
17 May - 02:44:08 10° WNW 02:48:47 49° N 02:53:24 10° E visible
17 May - 04:26:27 10° WNW 04:31:13 72° SSW 04:35:53 10° SE daylight
17 May - 06:09:49 10° W 06:12:47 17° SW 06:15:44 10° S daylight
17 May - 22:03:04 10° SSW 22:07:28 37° SE 22:11:54 10° ENE visible
17 May - 23:44:45 10° WSW 23:49:32 67° NNW 23:54:20 10° ENE visible
18 May - 01:27:39 10° WNW 01:32:15 43° N 01:36:49 10° ENE visible
18 May - 03:10:11 10° WNW 03:14:57 66° NNE 03:19:40 10° ESE visible
18 May - 04:52:38 10° WNW 04:57:01 37° SW 05:01:20 10° SSE daylight
18 May - 20:48:38 10° S 20:51:41 17° SE 20:54:44 10° E night (unlit)
18 May - 22:28:30 10° SW 22:33:17 71° SSE 22:38:05 10° ENE visible
19 May - 00:11:02 10° W 00:15:43 49° N 00:20:23 10° ENE visible
19 May - 01:53:52 10° WNW 01:58:31 48° N 02:03:08 10° E visible
19 May - 03:36:11 10° WNW 03:40:58 77° SSW 03:45:41 10° SE visible
19 May - 05:19:23 10° W 05:22:37 18° SW 05:25:48 10° S daylight
19 May - 21:12:55 10° SSW 21:17:16 35° SE 21:21:37 10° ENE visible
19 May - 22:54:28 10° WSW 22:59:17 70° NNW 23:04:06 10° ENE visible
20 May - 00:37:22 10° WNW 00:41:58 43° N 00:46:33 10° ENE visible
20 May - 02:19:55 10° WNW 02:24:42 64° NNE 02:29:25 10° E visible
20 May - 04:02:20 10° WNW 04:06:48 40° SW 04:11:12 10° SSE daylight
20 May - 19:58:42 10° SSE 20:01:30 15° SE 20:04:17 10° E visible
20 May - 21:38:16 10° SW 21:43:03 67° SSE 21:47:50 10° ENE visible
20 May - 23:20:45 10° W 23:25:26 50° NNW 23:30:08 10° ENE visible
21 May - 01:03:35 10° WNW 01:08:14 47° N 01:12:51 10° E visible
21 May - 02:45:55 10° WNW 02:50:44 81° SSW 02:55:28 10° ESE visible
21 May - 04:28:59 10° W 04:32:25 20° SW 04:35:49 10° S daylight
21 May - 20:22:48 10° SSW 20:27:03 32° SE 20:31:19 10° ENE visible
21 May - 22:04:12 10° WSW 22:09:01 74° NNW 22:13:51 10° ENE visible
21 May - 23:47:04 10° WNW 23:51:42 44° N 23:56:17 10° ENE visible
22 May - 01:29:40 10° WNW 01:34:26 61° NNE 01:39:10 10° E visible
22 May - 03:12:02 10° WNW 03:16:35 43° SW 03:21:04 10° SE visible
22 May - 19:08:49 10° SSE 19:11:18 14° SE 19:13:48 10° E daylight
22 May - 20:48:04 10° SW 20:52:48 63° SSE 20:57:34 10° ENE visible
22 May - 22:30:27 10° W 22:35:09 52° NNW 22:39:52 10° ENE visible
